User: anonymous   Login
Location: Hungerford
(51.4167°N, 1.5167°W)
Time: 11:31:49
(UTC+00:00)
Language:

Cosmos 1937 Rocket - Orbit

View from above orbital plane
View from above orbital plane
View from above satellite
View from above satellite

Ground track
Ground track

The orbit data is extracted from the following two-line orbital elements,

1 19039U 88029B   20329.54628499 -.00000046  00000-0 -64110-5 0  9991
2 19039  74.0449 145.6387 0023644   4.5990 355.5377 14.38490357711493
Epoch (UTC): 24 November 2020 13:06:39
Eccentricity: 0.0023644
inclination: 74.0449°
perigee height: 746 km
apogee height: 780 km
right ascension of ascending node: 145.6387°
argument of perigee: 4.5990°
revolutions per day: 14.38490357
mean anomaly at epoch: 355.5377°
orbit number at epoch: 71149

The dashed part of the orbit path shows where the satellite is in the earth's shadow,  

DLR